Location: Lawrence
(38.9720°N, 95.2350°W)
Time: 19:25:45
(UTC-05:00)

JAS-1B - Visible Passes

Search period start: 23 September 2014 00:00
Search period end: 03 October 2014 00:00
Orbit: 911 x 1745 km, 99.1° (Epoch: 21 September)

Date Brightness Start Highest point End Pass type
(mag) Time Alt. Az. Time Alt. Az. Time Alt. Az.
23 Sep 8.5 03:41:07 10° NNE 03:43:41 28° NNE 03:43:41 28° NNE visible
23 Sep 8.9 05:35:19 10° NW 05:35:56 11° NW 05:35:56 11° NW visible
24 Sep 8.4 04:00:12 10° N 04:02:50 28° N 04:02:50 28° N visible
25 Sep 9.6 02:29:26 10° NE 02:29:43 11° NE 02:29:43 11° NE visible
25 Sep 8.4 04:19:25 10° N 04:21:58 25° NNW 04:21:58 25° NNW visible
26 Sep 9.4 02:47:52 10° NNE 02:48:52 15° NE 02:48:52 15° NE visible
26 Sep 8.5 04:38:48 10° N 04:41:06 21° NNW 04:41:06 21° NNW visible
27 Sep 9.2 03:06:34 10° NNE 03:08:00 18° NNE 03:08:00 18° NNE visible
27 Sep 8.7 04:58:22 10° NNW 05:00:15 17° NW 05:00:15 17° NW visible
28 Sep 9.0 03:25:26 10° NNE 03:27:09 21° NNE 03:27:09 21° NNE visible
28 Sep 8.9 05:18:20 10° NNW 05:19:24 12° NW 05:19:24 12° NW visible
29 Sep 8.8 03:44:26 10° N 03:46:18 22° N 03:46:18 22° N visible
30 Sep 8.7 04:03:34 10° N 04:05:27 22° N 04:05:27 22° N visible
01 Oct 8.7 04:22:49 10° N 04:24:36 20° NNW 04:24:36 20° NNW visible
02 Oct 9.6 02:50:58 10° NNE 02:51:30 13° NNE 02:51:30 13° NNE visible
02 Oct 8.8 04:42:14 10° N 04:43:45 17° NNW 04:43:45 17° NNW visible
